Location: Unspecified
(0.0000°N, 0.0000°E)
Time: 22:00:32
(UTC+00:00)

A-11 Canister half - Visible Passes

Search period start: 31 March 2015 00:00
Search period end: 10 April 2015 00:00
Orbit: 1514 x 1685 km, 47.2° (Epoch: 29 March)

Date Brightness Start Highest point End Pass type
(mag) Time Alt. Az. Time Alt. Az. Time Alt. Az.
31 Mar 11.1 05:40:48 10° N 05:48:06 24° NE 05:55:38 10° E visible
31 Mar 9.2 18:29:31 10° SSW 18:38:40 53° SE 18:48:15 10° NE visible
31 Mar 10.3 20:35:06 10° WSW 20:43:43 34° NW 20:50:42 15° N visible
01 Apr 11.2 05:18:12 10° N 05:25:07 22° NE 05:32:20 10° E visible
01 Apr 10.2 20:11:59 10° WSW 20:20:46 37° NW 20:29:36 10° NNE visible
02 Apr 11.2 04:55:39 10° N 05:02:07 20° NE 05:08:59 10° E visible
02 Apr 10.1 19:48:54 10° WSW 19:57:48 40° NW 20:06:50 10° NNE visible
03 Apr 11.2 04:33:08 10° N 04:39:07 18° NE 04:45:33 10° E visible
03 Apr 10.0 19:25:51 10° WSW 19:34:53 44° NW 19:44:05 10° NNE visible
04 Apr 11.3 04:10:42 10° N 04:16:05 17° NE 04:22:03 10° E visible
04 Apr 10.0 19:02:48 10° WSW 19:11:56 48° NW 19:21:18 10° NNE visible
05 Apr 11.3 03:48:21 10° NNE 03:53:04 15° NE 03:58:26 10° ENE visible
05 Apr 9.9 18:39:48 10° SW 18:49:01 52° NW 18:58:29 10° NNE visible
06 Apr 11.3 03:26:08 10° NNE 03:30:01 13° NE 03:34:40 10° ENE visible
06 Apr 9.4 05:26:01 10° NNW 05:35:55 73° NE 05:45:30 10° SE visible
06 Apr 9.8 18:16:49 10° SW 18:26:06 57° NW 18:35:40 10° NNE visible
07 Apr 11.4 03:04:09 10° NNE 03:06:58 12° NE 03:10:38 10° ENE visible
07 Apr 9.5 05:03:09 10° NNW 05:13:00 67° NE 05:22:34 10° SE visible
07 Apr 11.6 20:07:48 10° NW 20:09:20 10° NW 20:09:56 10° NW visible
08 Apr 11.4 02:42:49 10° NNE 02:43:54 10° NE 02:45:56 10° NE visible
08 Apr 9.5 04:40:17 10° NNW 04:50:06 62° NE 04:59:37 10° SE visible
08 Apr 11.5 19:42:51 10° WNW 19:46:17 12° NW 19:48:52 10° NNW visible
09 Apr 9.6 04:17:27 10° NNW 04:27:11 57° NE 04:36:39 10° SE visible
09 Apr 11.4 19:18:48 10° WNW 19:23:14 13° NW 19:26:56 10° NNW visible
